Year,Month,Day,Hour,Minute,Value (Times are PST for temperature in C)
2012,06,22,00,00,14.90
2012,06,22,00,01,14.90
2012,06,22,00,02,14.90
2012,06,22,00,03,14.80
2012,06,22,00,04,14.80
2012,06,22,00,05,14.80
2012,06,22,00,06,14.80
2012,06,22,00,07,14.80
2012,06,22,00,08,14.80
2012,06,22,00,09,14.80
2012,06,22,00,10,14.80
2012,06,22,00,11,14.80
2012,06,22,00,12,14.80
2012,06,22,00,13,14.90
2012,06,22,00,14,14.90
2012,06,22,00,15,14.90
2012,06,22,00,16,14.90
2012,06,22,00,17,14.90
2012,06,22,00,18,14.90
2012,06,22,00,19,14.90
2012,06,22,00,20,14.90
2012,06,22,00,21,15.00
2012,06,22,00,22,15.00
2012,06,22,00,23,15.00
2012,06,22,00,24,15.00
2012,06,22,00,25,15.10
2012,06,22,00,26,15.10
2012,06,22,00,27,15.10
2012,06,22,00,28,15.10
2012,06,22,00,29,15.10
2012,06,22,00,30,15.10
2012,06,22,00,31,15.10
2012,06,22,00,32,15.10
2012,06,22,00,33,15.10
2012,06,22,00,34,15.10
2012,06,22,00,35,15.10
2012,06,22,00,36,15.10
2012,06,22,00,37,15.10
2012,06,22,00,38,15.10
2012,06,22,00,39,15.10
2012,06,22,00,40,15.10
2012,06,22,00,41,15.10
2012,06,22,00,42,15.10
2012,06,22,00,43,15.10
2012,06,22,00,44,15.20
2012,06,22,00,45,15.20
2012,06,22,00,46,15.20
2012,06,22,00,47,15.20
2012,06,22,00,48,15.20
2012,06,22,00,49,15.20
2012,06,22,00,50,15.30
2012,06,22,00,51,15.30
2012,06,22,00,52,15.30
2012,06,22,00,53,15.30
2012,06,22,00,54,15.30
2012,06,22,00,55,15.40
2012,06,22,00,56,15.40
2012,06,22,00,57,15.40
2012,06,22,00,58,15.40
2012,06,22,00,59,15.40
2012,06,22,01,00,15.40
2012,06,22,01,01,15.40
2012,06,22,01,02,15.40
2012,06,22,01,03,15.40
2012,06,22,01,04,15.40
2012,06,22,01,05,15.40
2012,06,22,01,06,15.40
2012,06,22,01,07,15.30
2012,06,22,01,08,15.30
2012,06,22,01,09,15.30
2012,06,22,01,10,15.20
2012,06,22,01,11,15.20
2012,06,22,01,12,15.10
2012,06,22,01,13,15.00
2012,06,22,01,14,15.00
2012,06,22,01,15,14.90
2012,06,22,01,16,14.80
2012,06,22,01,17,14.80
2012,06,22,01,18,14.70
2012,06,22,01,19,14.60
2012,06,22,01,20,14.60
2012,06,22,01,21,14.50
2012,06,22,01,22,14.40
2012,06,22,01,23,14.40
2012,06,22,01,24,14.30
2012,06,22,01,25,14.30
2012,06,22,01,26,14.20
2012,06,22,01,27,14.20
2012,06,22,01,28,14.10
2012,06,22,01,29,14.10
2012,06,22,01,30,14.10
2012,06,22,01,31,14.00
2012,06,22,01,32,14.00
2012,06,22,01,33,13.90
2012,06,22,01,34,13.90
2012,06,22,01,35,13.90
2012,06,22,01,36,13.90
2012,06,22,01,37,13.80
2012,06,22,01,38,13.80
2012,06,22,01,39,13.80
2012,06,22,01,40,13.70
2012,06,22,01,41,13.70
2012,06,22,01,42,13.70
2012,06,22,01,43,13.60
2012,06,22,01,44,13.60
2012,06,22,01,45,13.60
2012,06,22,01,46,13.50
2012,06,22,01,47,13.50
2012,06,22,01,48,13.50
2012,06,22,01,49,13.40
2012,06,22,01,50,13.40
2012,06,22,01,51,13.40
2012,06,22,01,52,13.30
2012,06,22,01,53,13.30
2012,06,22,01,54,13.30
2012,06,22,01,55,13.30
2012,06,22,01,56,13.30
2012,06,22,01,57,13.20
2012,06,22,01,58,13.20
2012,06,22,01,59,13.20
2012,06,22,02,00,13.20
2012,06,22,02,01,13.20
2012,06,22,02,02,13.20
2012,06,22,02,03,13.10
2012,06,22,02,04,13.10
2012,06,22,02,05,13.10
2012,06,22,02,06,13.10
2012,06,22,02,07,13.10
2012,06,22,02,08,13.00
2012,06,22,02,09,13.00
2012,06,22,02,10,13.00
2012,06,22,02,11,12.90
2012,06,22,02,12,12.90
2012,06,22,02,13,12.90
2012,06,22,02,14,12.90
2012,06,22,02,15,12.90
2012,06,22,02,16,12.90
2012,06,22,02,17,12.80
2012,06,22,02,18,12.80
2012,06,22,02,19,12.80
2012,06,22,02,20,12.80
2012,06,22,02,21,12.80
2012,06,22,02,22,12.80
2012,06,22,02,23,12.80
2012,06,22,02,24,12.80
2012,06,22,02,25,12.80
2012,06,22,02,26,12.80
2012,06,22,02,27,12.80
2012,06,22,02,28,12.80
2012,06,22,02,29,12.70
2012,06,22,02,30,12.70
2012,06,22,02,31,12.70
2012,06,22,02,32,12.70
2012,06,22,02,33,12.70
2012,06,22,02,34,12.70
2012,06,22,02,35,12.70
2012,06,22,02,36,12.60
2012,06,22,02,37,12.60
2012,06,22,02,38,12.60
2012,06,22,02,39,12.50
2012,06,22,02,40,12.50
2012,06,22,02,41,12.40
2012,06,22,02,42,12.40
2012,06,22,02,43,12.40
2012,06,22,02,44,12.40
2012,06,22,02,45,12.40
2012,06,22,02,46,12.40
2012,06,22,02,47,12.40
2012,06,22,02,48,12.40
2012,06,22,02,49,12.40
2012,06,22,02,50,12.30
2012,06,22,02,51,12.30
2012,06,22,02,52,12.30
2012,06,22,02,53,12.30
2012,06,22,02,54,12.30
2012,06,22,02,55,12.30
2012,06,22,02,56,12.30
2012,06,22,02,57,12.30
2012,06,22,02,58,12.30
2012,06,22,02,59,12.30
2012,06,22,03,00,12.30
2012,06,22,03,01,12.30
2012,06,22,03,02,12.30
2012,06,22,03,03,12.30
2012,06,22,03,04,12.30
2012,06,22,03,05,12.30
2012,06,22,03,06,12.30
2012,06,22,03,07,12.30
2012,06,22,03,08,12.30
2012,06,22,03,09,12.30
2012,06,22,03,10,12.30
2012,06,22,03,11,12.30
2012,06,22,03,12,12.30
2012,06,22,03,13,12.30
2012,06,22,03,14,12.40
2012,06,22,03,15,12.40
2012,06,22,03,16,12.40
2012,06,22,03,17,12.40
2012,06,22,03,18,12.40
2012,06,22,03,19,12.40
2012,06,22,03,20,12.40
2012,06,22,03,21,12.40
2012,06,22,03,22,12.40
2012,06,22,03,23,12.40
2012,06,22,03,24,12.30
2012,06,22,03,25,12.30
2012,06,22,03,26,12.20
2012,06,22,03,27,12.20
2012,06,22,03,28,12.10
2012,06,22,03,29,12.10
2012,06,22,03,30,12.10
2012,06,22,03,31,12.10
2012,06,22,03,32,12.10
2012,06,22,03,33,12.00
2012,06,22,03,34,12.00
2012,06,22,03,35,12.00
2012,06,22,03,36,12.00
2012,06,22,03,37,12.00
2012,06,22,03,38,12.00
2012,06,22,03,39,12.00
2012,06,22,03,40,12.00
2012,06,22,03,41,12.00
2012,06,22,03,42,11.90
2012,06,22,03,43,11.90
2012,06,22,03,44,11.90
2012,06,22,03,45,11.90
2012,06,22,03,46,11.90
2012,06,22,03,47,11.90
2012,06,22,03,48,11.90
2012,06,22,03,49,11.90
2012,06,22,03,50,11.90
2012,06,22,03,51,11.80
2012,06,22,03,52,11.80
2012,06,22,03,53,11.80
2012,06,22,03,54,11.80
2012,06,22,03,55,11.80
2012,06,22,03,56,11.70
2012,06,22,03,57,11.70
2012,06,22,03,58,11.70
2012,06,22,03,59,11.70
2012,06,22,04,00,11.60
2012,06,22,04,01,11.60
2012,06,22,04,02,11.60
2012,06,22,04,03,11.60
2012,06,22,04,04,11.50
2012,06,22,04,05,11.50
2012,06,22,04,06,11.50
2012,06,22,04,07,11.50
2012,06,22,04,08,11.40
2012,06,22,04,09,11.40
2012,06,22,04,10,11.40
2012,06,22,04,11,11.40
2012,06,22,04,12,11.40
2012,06,22,04,13,11.40
2012,06,22,04,14,11.30
2012,06,22,04,15,11.30
2012,06,22,04,16,11.30
2012,06,22,04,17,11.30
2012,06,22,04,18,11.30
2012,06,22,04,19,11.30
2012,06,22,04,20,11.20
2012,06,22,04,21,11.20
2012,06,22,04,22,11.20
2012,06,22,04,23,11.20
2012,06,22,04,24,11.10
2012,06,22,04,25,11.10
2012,06,22,04,26,11.10
2012,06,22,04,27,11.10
2012,06,22,04,28,11.00
2012,06,22,04,29,11.00
2012,06,22,04,30,11.00
2012,06,22,04,31,11.00
2012,06,22,04,32,11.00
2012,06,22,04,33,10.90
2012,06,22,04,34,10.90
2012,06,22,04,35,10.90
2012,06,22,04,36,10.90
2012,06,22,04,37,10.90
2012,06,22,04,38,10.90
2012,06,22,04,39,10.80
2012,06,22,04,40,10.80
2012,06,22,04,41,10.80
2012,06,22,04,42,10.80
2012,06,22,04,43,10.80
2012,06,22,04,44,10.80
2012,06,22,04,45,10.70
2012,06,22,04,46,10.70
2012,06,22,04,47,10.70
2012,06,22,04,48,10.70
2012,06,22,04,49,10.70
2012,06,22,04,50,10.70
2012,06,22,04,51,10.70
2012,06,22,04,52,10.70
2012,06,22,04,53,10.70
2012,06,22,04,54,10.70
2012,06,22,04,55,10.70
2012,06,22,04,56,10.70
2012,06,22,04,57,10.70
2012,06,22,04,58,10.70
2012,06,22,04,59,10.70
2012,06,22,05,00,10.70
2012,06,22,05,01,10.60
2012,06,22,05,02,10.60
2012,06,22,05,03,10.60
2012,06,22,05,04,10.60
2012,06,22,05,05,10.60
2012,06,22,05,06,10.60
2012,06,22,05,07,10.60
2012,06,22,05,08,10.60
2012,06,22,05,09,10.60
2012,06,22,05,10,10.60
2012,06,22,05,11,10.60
2012,06,22,05,12,10.60
2012,06,22,05,13,10.60
2012,06,22,05,14,10.60
2012,06,22,05,15,10.60
2012,06,22,05,16,10.60
2012,06,22,05,17,10.60
2012,06,22,05,18,10.60
2012,06,22,05,19,10.60
2012,06,22,05,20,10.60
2012,06,22,05,21,10.60
2012,06,22,05,22,10.60
2012,06,22,05,23,10.60
2012,06,22,05,24,10.60
2012,06,22,05,25,10.60
2012,06,22,05,26,10.60
2012,06,22,05,27,10.60
2012,06,22,05,28,10.60
2012,06,22,05,29,10.50
2012,06,22,05,30,10.60
2012,06,22,05,31,10.50
2012,06,22,05,32,10.50
2012,06,22,05,33,10.50
2012,06,22,05,34,10.50
2012,06,22,05,35,10.50
2012,06,22,05,36,10.50
2012,06,22,05,37,10.50
2012,06,22,05,38,10.40
2012,06,22,05,39,10.40
2012,06,22,05,40,10.40
2012,06,22,05,41,10.40
2012,06,22,05,42,10.40
2012,06,22,05,43,10.40
2012,06,22,05,44,10.40
2012,06,22,05,45,10.40
2012,06,22,05,46,10.40
2012,06,22,05,47,10.40
2012,06,22,05,48,10.40
2012,06,22,05,49,10.40
2012,06,22,05,50,10.40
2012,06,22,05,51,10.40
2012,06,22,05,52,10.40
2012,06,22,05,53,10.40
2012,06,22,05,54,10.40
2012,06,22,05,55,10.40
2012,06,22,05,56,10.50
2012,06,22,05,57,10.50
2012,06,22,05,58,10.50
2012,06,22,05,59,10.50
2012,06,22,06,00,10.50
2012,06,22,06,01,10.50
2012,06,22,06,02,10.50
2012,06,22,06,03,10.50
2012,06,22,06,04,10.50
2012,06,22,06,05,10.50
2012,06,22,06,06,10.60
2012,06,22,06,07,10.60
2012,06,22,06,08,10.60
2012,06,22,06,09,10.60
2012,06,22,06,10,10.60
2012,06,22,06,11,10.60
2012,06,22,06,12,10.60
2012,06,22,06,13,10.60
2012,06,22,06,14,10.60
2012,06,22,06,15,10.70
2012,06,22,06,16,10.70
2012,06,22,06,17,10.70
2012,06,22,06,18,10.70
2012,06,22,06,19,10.70
2012,06,22,06,20,10.70
2012,06,22,06,21,10.70
2012,06,22,06,22,10.80
2012,06,22,06,23,10.80
2012,06,22,06,24,10.80
2012,06,22,06,25,10.80
2012,06,22,06,26,10.80
2012,06,22,06,27,10.80
2012,06,22,06,28,10.80
2012,06,22,06,29,10.90
2012,06,22,06,30,10.90
2012,06,22,06,31,11.00
2012,06,22,06,32,11.00
2012,06,22,06,33,11.10
2012,06,22,06,34,11.10
2012,06,22,06,35,11.20
2012,06,22,06,36,11.20
2012,06,22,06,37,11.20
2012,06,22,06,38,11.30
2012,06,22,06,39,11.30
2012,06,22,06,40,11.40
2012,06,22,06,41,11.40
2012,06,22,06,42,11.50
2012,06,22,06,43,11.50
2012,06,22,06,44,11.60
2012,06,22,06,45,11.60
2012,06,22,06,46,11.70
2012,06,22,06,47,11.70
2012,06,22,06,48,11.80
2012,06,22,06,49,11.80
2012,06,22,06,50,11.90
2012,06,22,06,51,11.90
2012,06,22,06,52,12.00
2012,06,22,06,53,12.00
2012,06,22,06,54,12.10
2012,06,22,06,55,12.10
2012,06,22,06,56,12.20
2012,06,22,06,57,12.20
2012,06,22,06,58,12.30
2012,06,22,06,59,12.30
2012,06,22,07,00,12.30
2012,06,22,07,01,12.40
2012,06,22,07,02,12.40
2012,06,22,07,03,12.40
2012,06,22,07,04,12.50
2012,06,22,07,05,12.50
2012,06,22,07,06,12.60
2012,06,22,07,07,12.60
2012,06,22,07,08,12.60
2012,06,22,07,09,12.70
2012,06,22,07,10,12.70
2012,06,22,07,11,12.70
2012,06,22,07,12,12.70
2012,06,22,07,13,12.80
2012,06,22,07,14,12.80
2012,06,22,07,15,12.80
2012,06,22,07,16,12.80
2012,06,22,07,17,12.80
2012,06,22,07,18,12.90
2012,06,22,07,19,12.90
2012,06,22,07,20,12.90
2012,06,22,07,21,12.90
2012,06,22,07,22,12.90
2012,06,22,07,23,12.90
2012,06,22,07,24,12.90
2012,06,22,07,25,12.90
2012,06,22,07,26,12.90
2012,06,22,07,27,12.80
2012,06,22,07,28,12.80
2012,06,22,07,29,12.80
2012,06,22,07,30,12.80
2012,06,22,07,31,12.80
2012,06,22,07,32,12.80
2012,06,22,07,33,12.80
2012,06,22,07,34,12.80
2012,06,22,07,35,12.80
2012,06,22,07,36,12.80
2012,06,22,07,37,12.80
2012,06,22,07,38,12.80
2012,06,22,07,39,12.80
2012,06,22,07,40,12.90
2012,06,22,07,41,12.90
2012,06,22,07,42,12.90
2012,06,22,07,43,12.90
2012,06,22,07,44,13.00
2012,06,22,07,45,13.00
2012,06,22,07,46,13.10
2012,06,22,07,47,13.10
2012,06,22,07,48,13.10
2012,06,22,07,49,13.10
2012,06,22,07,50,13.20
2012,06,22,07,51,13.20
2012,06,22,07,52,13.20
2012,06,22,07,53,13.30
2012,06,22,07,54,13.30
2012,06,22,07,55,13.30
2012,06,22,07,56,13.30
2012,06,22,07,57,13.40
2012,06,22,07,58,13.40
2012,06,22,07,59,13.50
2012,06,22,08,00,13.50
2012,06,22,08,01,13.60
2012,06,22,08,02,13.60
2012,06,22,08,03,13.70
2012,06,22,08,04,13.70
2012,06,22,08,05,13.70
2012,06,22,08,06,13.80
2012,06,22,08,07,13.80
2012,06,22,08,08,13.90
2012,06,22,08,09,14.00
2012,06,22,08,10,14.00
2012,06,22,08,11,14.10
2012,06,22,08,12,14.20
2012,06,22,08,13,14.20
2012,06,22,08,14,14.30
2012,06,22,08,15,14.30
2012,06,22,08,16,14.40
2012,06,22,08,17,14.40
2012,06,22,08,18,14.50
2012,06,22,08,19,14.50
2012,06,22,08,20,14.60
2012,06,22,08,21,14.60
2012,06,22,08,22,14.70
2012,06,22,08,23,14.70
2012,06,22,08,24,14.80
2012,06,22,08,25,14.80
2012,06,22,08,26,14.90
2012,06,22,08,27,14.90
2012,06,22,08,28,15.00
2012,06,22,08,29,15.00
2012,06,22,08,30,15.10
2012,06,22,08,31,15.10
2012,06,22,08,32,15.20
2012,06,22,08,33,15.20
2012,06,22,08,34,15.30
2012,06,22,08,35,15.30
2012,06,22,08,36,15.30
2012,06,22,08,37,15.40
2012,06,22,08,38,15.40
2012,06,22,08,39,15.40
2012,06,22,08,40,15.40
2012,06,22,08,41,15.40
2012,06,22,08,42,15.40
2012,06,22,08,43,15.40
2012,06,22,08,44,15.40
2012,06,22,08,45,15.40
2012,06,22,08,46,15.50
2012,06,22,08,47,15.50
2012,06,22,08,48,15.50
2012,06,22,08,49,15.50
2012,06,22,08,50,15.50
2012,06,22,08,51,15.50
2012,06,22,08,52,15.50
2012,06,22,08,53,15.60
2012,06,22,08,54,15.60
2012,06,22,08,55,15.60
2012,06,22,08,56,15.60
2012,06,22,08,57,15.60
2012,06,22,08,58,15.60
2012,06,22,08,59,15.50
2012,06,22,09,00,15.50
2012,06,22,09,01,15.50
2012,06,22,09,02,15.40
2012,06,22,09,03,15.40
2012,06,22,09,04,15.30
2012,06,22,09,05,15.30
2012,06,22,09,06,15.20
2012,06,22,09,07,15.10
2012,06,22,09,08,15.10
2012,06,22,09,09,15.00
2012,06,22,09,10,15.00
2012,06,22,09,11,15.00
2012,06,22,09,12,14.90
2012,06,22,09,13,14.90
2012,06,22,09,14,14.90
2012,06,22,09,15,14.90
2012,06,22,09,16,14.90
2012,06,22,09,17,15.00
2012,06,22,09,18,15.00
2012,06,22,09,19,15.00
2012,06,22,09,20,15.00
2012,06,22,09,21,15.00
2012,06,22,09,22,14.90
2012,06,22,09,23,14.90
2012,06,22,09,24,15.00
2012,06,22,09,25,14.90
2012,06,22,09,26,15.00
2012,06,22,09,27,15.00
2012,06,22,09,28,15.00
2012,06,22,09,29,15.00
2012,06,22,09,30,15.00
2012,06,22,09,31,15.00
2012,06,22,09,32,15.00
2012,06,22,09,33,15.00
2012,06,22,09,34,15.00
2012,06,22,09,35,15.00
2012,06,22,09,36,15.00
2012,06,22,09,37,15.00
2012,06,22,09,38,15.00
2012,06,22,09,39,15.00
2012,06,22,09,40,15.00
2012,06,22,09,41,15.00
2012,06,22,09,42,15.00
2012,06,22,09,43,15.00
2012,06,22,09,44,15.00
2012,06,22,09,45,15.00
2012,06,22,09,46,15.00
2012,06,22,09,47,15.00
2012,06,22,09,48,15.00
2012,06,22,09,49,15.00
2012,06,22,09,50,15.10
2012,06,22,09,51,15.10
2012,06,22,09,52,15.10
2012,06,22,09,53,15.20
2012,06,22,09,54,15.20
2012,06,22,09,55,15.30
2012,06,22,09,56,15.30
2012,06,22,09,57,15.30
2012,06,22,09,58,15.30
2012,06,22,09,59,15.30
2012,06,22,10,00,15.30
2012,06,22,10,01,15.30
2012,06,22,10,02,15.40
2012,06,22,10,03,15.40
2012,06,22,10,04,15.40
2012,06,22,10,05,15.30
2012,06,22,10,06,15.30
2012,06,22,10,07,15.30
2012,06,22,10,08,15.20
2012,06,22,10,09,15.10
2012,06,22,10,10,15.10
2012,06,22,10,11,15.10
2012,06,22,10,12,15.00
2012,06,22,10,13,15.00
2012,06,22,10,14,15.00
2012,06,22,10,15,14.90
2012,06,22,10,16,14.90
2012,06,22,10,17,14.90
2012,06,22,10,18,14.90
2012,06,22,10,19,15.00
2012,06,22,10,20,15.00
2012,06,22,10,21,15.00
2012,06,22,10,22,15.00
2012,06,22,10,23,15.00
2012,06,22,10,24,15.00
2012,06,22,10,25,15.00
2012,06,22,10,26,15.00
2012,06,22,10,27,15.10
2012,06,22,10,28,15.10
2012,06,22,10,29,15.10
2012,06,22,10,30,15.10
2012,06,22,10,31,15.20
2012,06,22,10,32,15.20
2012,06,22,10,33,15.20
2012,06,22,10,34,15.30
2012,06,22,10,35,15.30
2012,06,22,10,36,15.30
2012,06,22,10,37,15.30
2012,06,22,10,38,15.40
2012,06,22,10,39,15.50
2012,06,22,10,40,15.50
2012,06,22,10,41,15.60
2012,06,22,10,42,15.70
2012,06,22,10,43,15.70
2012,06,22,10,44,15.80
2012,06,22,10,45,15.80
2012,06,22,10,46,15.80
2012,06,22,10,47,15.90
2012,06,22,10,48,15.90
2012,06,22,10,49,16.00
2012,06,22,10,50,16.00
2012,06,22,10,51,16.10
2012,06,22,10,52,16.10
2012,06,22,10,53,16.10
2012,06,22,10,54,16.20
2012,06,22,10,55,16.20
2012,06,22,10,56,16.20
2012,06,22,10,57,16.30
2012,06,22,10,58,16.30
2012,06,22,10,59,16.30
2012,06,22,11,00,16.40
2012,06,22,11,01,16.40
2012,06,22,11,02,16.40
2012,06,22,11,03,16.40
2012,06,22,11,04,16.40
2012,06,22,11,05,16.50
2012,06,22,11,06,16.50
2012,06,22,11,07,16.50
2012,06,22,11,08,16.40
2012,06,22,11,09,16.40
2012,06,22,11,10,16.40
2012,06,22,11,11,16.40
2012,06,22,11,12,16.40
2012,06,22,11,13,16.40
2012,06,22,11,14,16.40
2012,06,22,11,15,16.40
2012,06,22,11,16,16.40
2012,06,22,11,17,16.40
2012,06,22,11,18,16.40
2012,06,22,11,19,16.40
2012,06,22,11,20,16.30
2012,06,22,11,21,16.30
2012,06,22,11,22,16.20
2012,06,22,11,23,16.10
2012,06,22,11,24,15.90
2012,06,22,11,25,15.80
2012,06,22,11,26,15.80
2012,06,22,11,27,15.70
2012,06,22,11,28,15.70
2012,06,22,11,29,15.70
2012,06,22,11,30,15.70
2012,06,22,11,31,15.70
2012,06,22,11,32,15.60
2012,06,22,11,33,15.60
2012,06,22,11,34,15.60
2012,06,22,11,35,15.60
2012,06,22,11,36,15.50
2012,06,22,11,37,15.50
2012,06,22,11,38,15.40
2012,06,22,11,39,15.30
2012,06,22,11,40,15.30
2012,06,22,11,41,15.30
2012,06,22,11,42,15.30
2012,06,22,11,43,15.20
2012,06,22,11,44,15.20
2012,06,22,11,45,15.20
2012,06,22,11,46,15.20
2012,06,22,11,47,15.20
2012,06,22,11,48,15.20
2012,06,22,11,49,15.20
2012,06,22,11,50,15.20
2012,06,22,11,51,15.20
2012,06,22,11,52,15.20
2012,06,22,11,53,15.20
2012,06,22,11,54,15.20
2012,06,22,11,55,15.20
2012,06,22,11,56,15.20
2012,06,22,11,57,15.20
2012,06,22,11,58,15.20
2012,06,22,11,59,15.20
2012,06,22,12,00,15.20
2012,06,22,12,01,15.20
2012,06,22,12,02,15.20
2012,06,22,12,03,15.20
2012,06,22,12,04,15.10
2012,06,22,12,05,15.10
2012,06,22,12,06,15.00
2012,06,22,12,07,14.90
2012,06,22,12,08,14.90
2012,06,22,12,09,14.80
2012,06,22,12,10,14.80
2012,06,22,12,11,14.70
2012,06,22,12,12,14.70
2012,06,22,12,13,14.60
2012,06,22,12,14,14.60
2012,06,22,12,15,14.60
2012,06,22,12,16,14.50
2012,06,22,12,17,14.50
2012,06,22,12,18,14.50
2012,06,22,12,19,14.40
2012,06,22,12,20,14.40
2012,06,22,12,21,14.40
2012,06,22,12,22,14.40
2012,06,22,12,23,14.40
2012,06,22,12,24,14.40
2012,06,22,12,25,14.40
2012,06,22,12,26,14.40
2012,06,22,12,27,14.40
2012,06,22,12,28,14.40
2012,06,22,12,29,14.40
2012,06,22,12,30,14.40
2012,06,22,12,31,14.30
2012,06,22,12,32,14.30
2012,06,22,12,33,14.30
2012,06,22,12,34,14.20
2012,06,22,12,35,14.10
2012,06,22,12,36,14.10
2012,06,22,12,37,14.00
2012,06,22,12,38,13.90
2012,06,22,12,39,13.90
2012,06,22,12,40,13.90
2012,06,22,12,41,13.80
2012,06,22,12,42,13.80
2012,06,22,12,43,13.70
2012,06,22,12,44,13.70
2012,06,22,12,45,13.60
2012,06,22,12,46,13.60
2012,06,22,12,47,13.50
2012,06,22,12,48,13.50
2012,06,22,12,49,13.40
2012,06,22,12,50,13.40
2012,06,22,12,51,13.40
2012,06,22,12,52,13.30
2012,06,22,12,53,13.30
2012,06,22,12,54,13.30
2012,06,22,12,55,13.30
2012,06,22,12,56,13.20
2012,06,22,12,57,13.20
2012,06,22,12,58,13.20
2012,06,22,12,59,13.20
2012,06,22,13,00,13.20
2012,06,22,13,01,13.20
2012,06,22,13,02,13.20
2012,06,22,13,03,13.20
2012,06,22,13,04,13.20
2012,06,22,13,05,13.20
2012,06,22,13,06,13.20
2012,06,22,13,07,13.20
2012,06,22,13,08,13.10
2012,06,22,13,09,13.10
2012,06,22,13,10,13.10
2012,06,22,13,11,13.10
2012,06,22,13,12,13.10
2012,06,22,13,13,13.10
2012,06,22,13,14,13.10
2012,06,22,13,15,13.20
2012,06,22,13,16,13.10
2012,06,22,13,17,13.10
2012,06,22,13,18,13.10
2012,06,22,13,19,13.10
2012,06,22,13,20,13.10
2012,06,22,13,21,13.10
2012,06,22,13,22,13.10
2012,06,22,13,23,13.00
2012,06,22,13,24,13.00
2012,06,22,13,25,13.00
2012,06,22,13,26,13.00
2012,06,22,13,27,13.00
2012,06,22,13,28,13.00
2012,06,22,13,29,13.00
2012,06,22,13,30,13.00
2012,06,22,13,31,13.00
2012,06,22,13,32,13.00
2012,06,22,13,33,13.00
2012,06,22,13,34,13.00
2012,06,22,13,35,13.00
2012,06,22,13,36,13.00
2012,06,22,13,37,13.00
2012,06,22,13,38,13.00
2012,06,22,13,39,13.00
2012,06,22,13,40,13.00
2012,06,22,13,41,13.00
2012,06,22,13,42,13.00
2012,06,22,13,43,13.00
2012,06,22,13,44,13.10
2012,06,22,13,45,13.10
2012,06,22,13,46,13.10
2012,06,22,13,47,13.10
2012,06,22,13,48,13.10
2012,06,22,13,49,13.20
2012,06,22,13,50,13.20
2012,06,22,13,51,13.20
2012,06,22,13,52,13.20
2012,06,22,13,53,13.20
2012,06,22,13,54,13.20
2012,06,22,13,55,13.20
2012,06,22,13,56,13.20
2012,06,22,13,57,13.20
2012,06,22,13,58,13.20
2012,06,22,13,59,13.20
2012,06,22,14,00,13.20
2012,06,22,14,01,13.20
2012,06,22,14,02,13.20
2012,06,22,14,03,13.20
2012,06,22,14,04,13.20
2012,06,22,14,05,13.20
2012,06,22,14,06,13.20
2012,06,22,14,07,13.20
2012,06,22,14,08,13.10
2012,06,22,14,09,13.00
2012,06,22,14,10,13.00
2012,06,22,14,11,12.90
2012,06,22,14,12,12.80
2012,06,22,14,13,12.70
2012,06,22,14,14,12.60
2012,06,22,14,15,12.50
2012,06,22,14,16,12.40
2012,06,22,14,17,12.30
2012,06,22,14,18,12.30
2012,06,22,14,19,12.20
2012,06,22,14,20,12.20
2012,06,22,14,21,12.20
2012,06,22,14,22,12.20
2012,06,22,14,23,12.10
2012,06,22,14,24,12.10
2012,06,22,14,25,12.00
2012,06,22,14,26,12.00
2012,06,22,14,27,12.00
2012,06,22,14,28,12.00
2012,06,22,14,29,12.00
2012,06,22,14,30,12.00
2012,06,22,14,31,12.00
2012,06,22,14,32,12.10
2012,06,22,14,33,12.10
2012,06,22,14,34,12.10
2012,06,22,14,35,12.10
2012,06,22,14,36,12.10
2012,06,22,14,37,12.10
2012,06,22,14,38,12.10
2012,06,22,14,39,12.10
2012,06,22,14,40,12.10
2012,06,22,14,41,12.10
2012,06,22,14,42,12.10
2012,06,22,14,43,12.10
2012,06,22,14,44,12.10
2012,06,22,14,45,12.10
2012,06,22,14,46,12.10
2012,06,22,14,47,12.10
2012,06,22,14,48,12.10
2012,06,22,14,49,12.10
2012,06,22,14,50,12.20
2012,06,22,14,51,12.20
2012,06,22,14,52,12.20
2012,06,22,14,53,12.20
2012,06,22,14,54,12.20
2012,06,22,14,55,12.20
2012,06,22,14,56,12.20
2012,06,22,14,57,12.20
2012,06,22,14,58,12.30
2012,06,22,14,59,12.30
2012,06,22,15,00,12.30
2012,06,22,15,01,12.30
2012,06,22,15,02,12.30
2012,06,22,15,03,12.30
2012,06,22,15,04,12.30
2012,06,22,15,05,12.30
2012,06,22,15,06,12.30
2012,06,22,15,07,12.30
2012,06,22,15,08,12.40
2012,06,22,15,09,12.40
2012,06,22,15,10,12.40
2012,06,22,15,11,12.40
2012,06,22,15,12,12.50
2012,06,22,15,13,12.50
2012,06,22,15,14,12.50
2012,06,22,15,15,12.60
2012,06,22,15,16,12.60
2012,06,22,15,17,12.60
2012,06,22,15,18,12.60
2012,06,22,15,19,12.60
2012,06,22,15,20,12.60
2012,06,22,15,21,12.60
2012,06,22,15,22,12.60
2012,06,22,15,23,12.60
2012,06,22,15,24,12.60
2012,06,22,15,25,12.60
2012,06,22,15,26,12.60
2012,06,22,15,27,12.60
2012,06,22,15,28,12.60
2012,06,22,15,29,12.60
2012,06,22,15,30,12.60
2012,06,22,15,31,12.60
2012,06,22,15,32,12.60
2012,06,22,15,33,12.60
2012,06,22,15,34,12.60
2012,06,22,15,35,12.60
2012,06,22,15,36,12.60
2012,06,22,15,37,12.60
2012,06,22,15,38,12.60
2012,06,22,15,39,12.50
2012,06,22,15,40,12.50
2012,06,22,15,41,12.50
2012,06,22,15,42,12.50
2012,06,22,15,43,12.50
2012,06,22,15,44,12.50
2012,06,22,15,45,12.50
2012,06,22,15,46,12.50
2012,06,22,15,47,12.50
2012,06,22,15,48,12.40
2012,06,22,15,49,12.40
2012,06,22,15,50,12.40
2012,06,22,15,51,12.40
2012,06,22,15,52,12.40
2012,06,22,15,53,12.40
2012,06,22,15,54,12.40
2012,06,22,15,55,12.40
2012,06,22,15,56,12.40
2012,06,22,15,57,12.40
2012,06,22,15,58,12.40
2012,06,22,15,59,12.40
2012,06,22,16,00,12.40
2012,06,22,16,01,12.40
2012,06,22,16,02,12.40
2012,06,22,16,03,12.40
2012,06,22,16,04,12.40
2012,06,22,16,05,12.40
2012,06,22,16,06,12.40
2012,06,22,16,07,12.40
2012,06,22,16,08,12.40
2012,06,22,16,09,12.40
2012,06,22,16,10,12.40
2012,06,22,16,11,12.40
2012,06,22,16,12,12.40
2012,06,22,16,13,12.30
2012,06,22,16,14,12.30
2012,06,22,16,15,12.30
2012,06,22,16,16,12.40
2012,06,22,16,17,12.40
2012,06,22,16,18,12.40
2012,06,22,16,19,12.40
2012,06,22,16,20,12.40
2012,06,22,16,21,12.40
2012,06,22,16,22,12.30
2012,06,22,16,23,12.30
2012,06,22,16,24,12.30
2012,06,22,16,25,12.30
2012,06,22,16,26,12.30
2012,06,22,16,27,12.30
2012,06,22,16,28,12.30
2012,06,22,16,29,12.30
2012,06,22,16,30,12.30
2012,06,22,16,31,12.30
2012,06,22,16,32,12.30
2012,06,22,16,33,12.30
2012,06,22,16,34,12.30
2012,06,22,16,35,12.30
2012,06,22,16,36,12.30
2012,06,22,16,37,12.30
2012,06,22,16,38,12.30
2012,06,22,16,39,12.30
2012,06,22,16,40,12.30
2012,06,22,16,41,12.30
2012,06,22,16,42,12.30
2012,06,22,16,43,12.30
2012,06,22,16,44,12.30
2012,06,22,16,45,12.30
2012,06,22,16,46,12.30
2012,06,22,16,47,12.30
2012,06,22,16,48,12.30
2012,06,22,16,49,12.30
2012,06,22,16,50,12.20
2012,06,22,16,51,12.20
2012,06,22,16,52,12.20
2012,06,22,16,53,12.20
2012,06,22,16,54,12.20
2012,06,22,16,55,12.20
2012,06,22,16,56,12.20
2012,06,22,16,57,12.20
2012,06,22,16,58,12.10
2012,06,22,16,59,12.10
2012,06,22,17,00,12.10
2012,06,22,17,01,12.10
2012,06,22,17,02,12.10
2012,06,22,17,03,12.10
2012,06,22,17,04,12.10
2012,06,22,17,05,12.10
2012,06,22,17,06,12.10
2012,06,22,17,07,12.10
2012,06,22,17,08,12.10
2012,06,22,17,09,12.10
2012,06,22,17,10,12.10
2012,06,22,17,11,12.10
2012,06,22,17,12,12.10
2012,06,22,17,13,12.00
2012,06,22,17,14,12.00
2012,06,22,17,15,12.00
2012,06,22,17,16,12.00
2012,06,22,17,17,12.00
2012,06,22,17,18,12.00
2012,06,22,17,19,12.00